TimeCST,TemperatureF,Dew PointF,Humidity,Sea Level PressureIn,VisibilityMPH,Wind Direction,Wind SpeedMPH,Gust SpeedMPH,PrecipitationIn,Events,Conditions,WindDirDegrees,DateUTC
1:35 AM,53.6,46.4,77,30.06,10.0,SE,6.9,-,N/A,,Overcast,140,2013-03-05 07:35:00
1:53 AM,54.0,46.0,75,30.05,10.0,SE,8.1,-,N/A,,Overcast,130,2013-03-05 07:53:00
2:53 AM,53.1,45.0,74,30.03,10.0,SE,10.4,-,N/A,,Overcast,140,2013-03-05 08:53:00
3:53 AM,53.1,45.0,74,30.02,10.0,SE,9.2,-,N/A,,Overcast,140,2013-03-05 09:53:00
4:53 AM,54.0,46.0,75,30.02,10.0,SSE,4.6,-,N/A,,Overcast,150,2013-03-05 10:53:00
5:53 AM,54.0,46.9,77,30.04,10.0,SSE,4.6,-,N/A,,Overcast,150,2013-03-05 11:53:00
6:53 AM,54.0,48.0,80,30.03,10.0,SSE,6.9,-,N/A,,Overcast,150,2013-03-05 12:53:00
7:53 AM,57.0,48.9,74,30.04,10.0,SSE,9.2,-,N/A,,Overcast,160,2013-03-05 13:53:00
8:53 AM,62.1,52.0,70,30.02,10.0,South,10.4,-,N/A,,Mostly Cloudy,190,2013-03-05 14:53:00
9:53 AM,66.9,53.1,61,29.99,10.0,SSW,15.0,23.0,N/A,,Mostly Cloudy,210,2013-03-05 15:53:00
10:53 AM,68.0,53.1,59,29.96,-9999.0,SW,18.4,26.5,N/A,,Overcast,220,2013-03-05 16:53:00
11:53 AM,72.0,54.0,53,29.90,10.0,SSW,19.6,29.9,N/A,,Mostly Cloudy,200,2013-03-05 17:53:00
12:53 PM,71.1,55.0,57,29.88,10.0,SW,19.6,27.6,N/A,,Overcast,230,2013-03-05 18:53:00
1:53 PM,73.9,55.9,53,29.83,10.0,SW,17.3,25.3,N/A,,Mostly Cloudy,220,2013-03-05 19:53:00
2:48 PM,73.4,55.4,53,29.82,10.0,SW,12.7,27.6,N/A,Thunderstorm,Mostly Cloudy,230,2013-03-05 20:48:00
2:53 PM,73.0,55.9,55,29.82,10.0,SW,18.4,27.6,0.00,Rain-Thunderstorm,Light Rain,230,2013-03-05 20:53:00
2:59 PM,71.6,55.4,57,29.83,10.0,WSW,21.9,29.9,0.00,Rain-Thunderstorm,Light Rain,240,2013-03-05 20:59:00
3:11 PM,62.6,55.4,77,29.87,2.0,West,25.3,47.2,0.01,Rain,Rain,280,2013-03-05 21:11:00
3:19 PM,60.8,55.4,82,29.88,8.0,WNW,19.6,33.4,0.03,Rain,Light Rain,290,2013-03-05 21:19:00
3:27 PM,60.8,57.2,88,29.88,8.0,WNW,13.8,-,0.06,Rain,Light Rain,290,2013-03-05 21:27:00
3:53 PM,60.1,52.0,75,29.90,10.0,West,20.7,31.1,0.06,,Scattered Clouds,280,2013-03-05 21:53:00
4:53 PM,60.1,46.9,62,29.94,10.0,WNW,17.3,32.2,N/A,,Scattered Clouds,290,2013-03-05 22:53:00
5:53 PM,54.0,41.0,62,30.01,10.0,WNW,20.7,31.1,N/A,,Scattered Clouds,300,2013-03-05 23:53:00
6:53 PM,48.0,36.0,63,30.07,10.0,NW,19.6,27.6,N/A,,Partly Cloudy,310,2013-03-06 00:53:00
7:53 PM,45.0,35.1,68,30.10,10.0,NW,8.1,-,N/A,,Partly Cloudy,310,2013-03-06 01:53:00
8:53 PM,44.1,35.1,71,30.11,10.0,NW,6.9,-,N/A,,Clear,310,2013-03-06 02:53:00
9:53 PM,42.1,34.0,73,30.11,10.0,WSW,3.5,-,N/A,,Clear,240,2013-03-06 03:53:00
10:53 PM,41.0,34.0,76,30.09,10.0,SW,4.6,-,N/A,,Clear,230,2013-03-06 04:53:00
11:53 PM,39.9,34.0,79,30.09,10.0,WSW,5.8,-,N/A,,Clear,240,2013-03-06 05:53:00